{"data":{"norad_id":68080,"epoch":"2026-05-25T03:07:36.211008Z","epoch_age_seconds":63129,"freshness":"FRESH","line1":"1 68080U 26042M   26145.13028022  .00012785  00000+0  38881-3 0  9995","line2":"2 68080  53.1582 181.1428 0001292  93.3076 266.8075 15.34405792 14048","mean_motion":15.34405792,"eccentricity":0.0001292,"inclination_deg":53.1582,"raan_deg":181.1428,"arg_perigee_deg":93.3076,"mean_anomaly_deg":266.8075,"bstar":0.00038881,"rev_number":1404,"period_min":93.847403829404,"perigee_km":461.80219088179,"apogee_km":463.56985955151,"semimajor_km":6840.8230252166,"source":"CELESTRAK","updated_at":"2026-05-25T13:38:21.819433Z"}}